Location: Azul
(36.7830°S, 59.8500°W)
Time: 12:38:33
(UTC-03:00)

Envisat - Visible Passes

Search period start: 04 August 2021 00:00
Search period end: 14 August 2021 00:00
Orbit: 764 x 766 km, 98.2° (Epoch: 03 August)

Date Brightness Start Highest point End Pass type
(mag) Time Alt. Az. Time Alt. Az. Time Alt. Az.
04 Aug 4.1 05:16:47 10° NNE 05:19:57 38° NE 05:19:57 38° NE visible
04 Aug 4.9 06:59:24 10° WNW 07:00:09 11° WNW 07:00:09 11° WNW visible
04 Aug 5.0 19:07:31 10° S 19:11:58 30° WSW 19:16:21 10° NW visible
05 Aug 5.2 04:40:49 10° NE 04:42:48 20° ENE 04:42:48 20° ENE visible
05 Aug 4.0 06:19:46 10° NNW 06:23:00 26° WNW 06:23:00 26° WNW visible
06 Aug 3.4 05:42:06 10° N 05:45:52 48° NNW 05:45:52 48° NNW visible
06 Aug 5.7 19:33:43 10° SSW 19:37:03 18° WSW 19:40:21 10° WNW visible
07 Aug 4.2 05:05:27 10° NNE 05:08:45 37° NE 05:08:45 37° NE visible
07 Aug 4.6 06:46:38 10° NW 06:48:57 15° WNW 06:48:57 15° WNW visible
07 Aug 4.6 18:55:49 10° S 19:00:33 38° WSW 19:05:15 10° NW visible
08 Aug 5.4 04:29:49 10° ENE 04:31:38 18° ENE 04:31:38 18° ENE visible
08 Aug 3.6 06:07:54 10° NNW 06:11:51 35° WNW 06:11:51 35° WNW visible
09 Aug 3.2 05:30:35 10° NNE 05:34:46 61° N 05:34:46 61° N visible
09 Aug 5.5 19:21:47 10° SSW 19:25:41 22° WSW 19:29:32 10° WNW visible
10 Aug 4.4 04:54:13 10° NE 04:57:42 35° ENE 04:57:42 35° ENE visible
10 Aug 4.2 06:34:21 10° NW 06:37:55 20° W 06:37:55 20° W visible
10 Aug 4.1 18:44:11 10° S 18:49:08 49° WSW 18:54:01 10° NW visible
11 Aug 5.6 04:18:58 10° ENE 04:20:40 16° E 04:20:40 16° E visible
11 Aug 3.2 05:56:10 10° N 06:00:53 47° WNW 06:00:53 47° WNW visible
11 Aug 5.9 19:48:32 10° SW 19:50:42 13° WSW 19:52:52 10° W visible
12 Aug 3.1 05:19:08 10° NNE 05:23:52 71° ENE 05:23:52 71° ENE visible
12 Aug 4.8 07:02:28 10° WNW 07:03:43 11° W 07:04:05 11° W visible
12 Aug 5.1 19:09:58 10° SSW 19:14:18 28° WSW 19:18:35 10° NW visible
13 Aug 4.6 04:43:03 10° NE 04:46:54 31° E 04:46:54 31° E visible
13 Aug 3.9 06:22:18 10° NNW 06:26:32 26° W 06:27:07 26° W visible
